Location: Chervonnoye
(48.6000°N, 34.4000°E)
Time: 08:16:51
(UTC+00:00)

Nadezhda 1 Rocket - Pass Details

Date: 19 April 2021
Orbit: 940 x 1006 km, 83.0° (Epoch: 13 May)

Event Time Altitude Azimuth Distance (km) Brightness Sun altitude
Exits shadow 22:51:20 58° 262° (W) 1,164 4.2 -27.9°
Maximum altitude 22:51:51 60° 283° (WNW) 1,147 4.2 -27.9°
Drops below altitude 10° 22:58:10 10° 3° (N) 2,781 7.3 -27.5°
Sets 23:00:46 0° 7° (N) 3,728 8.2 -27.4°
